SHT22A EGLL-EGJB

Flight info

Callsign SHT22A
Flight time 0h 38m
Altitude 17000
Route GOGSI2F GOGSI N621 SAM/N0348F160 N63 LELNA LELNA1B
Aircraft A21N/M-SDE3FGIJ1LRWXYZ/SB1G1

Departure

Time 2026-05-03 22:19
Airport London Heathrow Airport (EGLL)

Arrival

Time 2026-05-03 22:58
Airport Guernsey Airport (EGJB)
Time Latitude Longitude Altitude Speed Heading
2026-05-03 21:55 51.46837 -0.48619 92 ft 0 kts 180°
2026-05-03 22:01 51.46840 -0.48619 92 ft 1 kts 180°
2026-05-03 22:01 51.46857 -0.48619 94 ft 3 kts 180°
2026-05-03 22:02 51.46872 -0.48623 92 ft 3 kts 133°
2026-05-03 22:02 51.46877 -0.48642 93 ft 2 kts 91°
2026-05-03 22:02 51.46877 -0.48661 93 ft 3 kts 90°
2026-05-03 22:02 51.46877 -0.48683 91 ft 0 kts 90°
2026-05-03 22:07 51.46877 -0.48682 91 ft 1 kts 90°
2026-05-03 22:07 51.46877 -0.48634 93 ft 5 kts 89°
2026-05-03 22:08 51.46878 -0.48567 92 ft 7 kts 90°
2026-05-03 22:08 51.46879 -0.48470 92 ft 10 kts 88°
2026-05-03 22:08 51.46864 -0.48355 92 ft 12 kts 143°
2026-05-03 22:08 51.46801 -0.48355 92 ft 8 kts 179°
2026-05-03 22:09 51.46742 -0.48324 92 ft 11 kts 122°
2026-05-03 22:09 51.46743 -0.48192 92 ft 13 kts 88°
2026-05-03 22:09 51.46743 -0.48035 92 ft 15 kts 89°
2026-05-03 22:10 51.46744 -0.47656 91 ft 12 kts 90°
2026-05-03 22:10 51.46745 -0.47542 91 ft 11 kts 89°
2026-05-03 22:10 51.46745 -0.47434 92 ft 10 kts 90°
2026-05-03 22:10 51.46745 -0.47312 92 ft 12 kts 90°
2026-05-03 22:11 51.46746 -0.47164 92 ft 14 kts 89°
2026-05-03 22:11 51.46747 -0.46992 95 ft 16 kts 89°
2026-05-03 22:11 51.46747 -0.46798 92 ft 18 kts 89°
2026-05-03 22:11 51.46748 -0.46582 92 ft 20 kts 89°
2026-05-03 22:12 51.46749 -0.46360 92 ft 15 kts 89°
2026-05-03 22:12 51.46748 -0.46225 92 ft 13 kts 90°
2026-05-03 22:12 51.46748 -0.46063 91 ft 16 kts 90°
2026-05-03 22:12 51.46748 -0.45861 91 ft 20 kts 89°
2026-05-03 22:13 51.46749 -0.45624 91 ft 23 kts 89°
2026-05-03 22:13 51.46750 -0.45359 92 ft 25 kts 90°
2026-05-03 22:13 51.46751 -0.45076 92 ft 26 kts 90°
2026-05-03 22:13 51.46752 -0.44789 92 ft 25 kts 89°
2026-05-03 22:14 51.46753 -0.44608 92 ft 0 kts 90°
2026-05-03 22:14 51.46753 -0.44600 92 ft 2 kts 90°
2026-05-03 22:14 51.46753 -0.44550 92 ft 6 kts 90°
2026-05-03 22:14 51.46753 -0.44459 92 ft 10 kts 90°
2026-05-03 22:15 51.46752 -0.44324 92 ft 14 kts 90°
2026-05-03 22:15 51.46753 -0.44160 92 ft 16 kts 87°
2026-05-03 22:15 51.46773 -0.43976 93 ft 18 kts 88°
2026-05-03 22:15 51.46771 -0.43769 92 ft 20 kts 89°
2026-05-03 22:16 51.46772 -0.43541 95 ft 21 kts 96°
2026-05-03 22:16 51.46685 -0.43439 93 ft 10 kts 182°
2026-05-03 22:16 51.46625 -0.43437 92 ft 7 kts 178°
2026-05-03 22:16 51.46613 -0.43437 93 ft 0 kts 179°
2026-05-03 22:17 51.46606 -0.43436 94 ft 3 kts 179°
2026-05-03 22:17 51.46571 -0.43436 92 ft 7 kts 179°
2026-05-03 22:17 51.46509 -0.43435 95 ft 9 kts 179°
2026-05-03 22:17 51.46495 -0.43506 94 ft 7 kts 272°
2026-05-03 22:18 51.46495 -0.43519 93 ft 0 kts 271°
2026-05-03 22:19 51.46495 -0.43521 93 ft 2 kts 271°
2026-05-03 22:19 51.46490 -0.43945 91 ft 87 kts 271°
2026-05-03 22:19 51.46475 -0.45428 95 ft 175 kts 269°
2026-05-03 22:19 51.46477 -0.47489 904 ft 186 kts 271°
2026-05-03 22:20 51.46562 -0.49659 1834 ft 210 kts 273°
2026-05-03 22:20 51.46607 -0.52174 2371 ft 240 kts 270°
2026-05-03 22:20 51.46634 -0.54985 3021 ft 260 kts 271°
2026-05-03 22:20 51.46690 -0.57904 4042 ft 263 kts 271°
2026-05-03 22:21 51.46556 -0.60841 4980 ft 267 kts 257°
2026-05-03 22:21 51.46099 -0.63732 5596 ft 268 kts 254°
2026-05-03 22:21 51.45626 -0.66625 5882 ft 268 kts 257°
2026-05-03 22:21 51.45441 -0.69602 5992 ft 269 kts 266°
2026-05-03 22:22 51.45391 -0.72607 6027 ft 269 kts 268°
2026-05-03 22:22 51.45374 -0.75587 6025 ft 270 kts 268°
2026-05-03 22:22 51.45355 -0.78595 6020 ft 269 kts 268°
2026-05-03 22:22 51.45331 -0.81590 6014 ft 269 kts 267°
2026-05-03 22:23 51.44920 -0.84471 5997 ft 267 kts 240°
2026-05-03 22:23 51.43657 -0.86604 6006 ft 266 kts 210°
2026-05-03 22:23 51.41919 -0.87556 6022 ft 266 kts 190°
2026-05-03 22:23 51.40108 -0.88174 6009 ft 266 kts 204°
2026-05-03 22:24 51.38518 -0.89666 6020 ft 266 kts 213°
2026-05-03 22:24 51.36982 -0.91323 6019 ft 266 kts 214°
2026-05-03 22:24 51.35456 -0.92997 6013 ft 266 kts 214°
2026-05-03 22:24 51.33943 -0.94691 6032 ft 265 kts 214°
2026-05-03 22:25 51.32422 -0.96383 6716 ft 268 kts 214°
2026-05-03 22:25 51.30876 -0.98094 7698 ft 271 kts 214°
2026-05-03 22:25 51.29318 -0.99809 8669 ft 272 kts 214°
2026-05-03 22:25 51.27743 -1.01500 9408 ft 275 kts 213°
2026-05-03 22:26 51.26155 -1.03137 9822 ft 278 kts 212°
2026-05-03 22:26 51.24419 -1.04919 9955 ft 311 kts 212°
2026-05-03 22:26 51.23174 -1.06197 9981 ft 327 kts 212°
2026-05-03 22:26 51.21253 -1.08173 9976 ft 329 kts 213°
2026-05-03 22:27 51.19324 -1.10157 9957 ft 329 kts 213°
2026-05-03 22:27 51.17395 -1.12140 9948 ft 329 kts 213°
2026-05-03 22:27 51.15479 -1.14109 9942 ft 329 kts 213°
2026-05-03 22:27 51.12927 -1.16730 10462 ft 330 kts 212°
2026-05-03 22:28 51.11620 -1.18071 11040 ft 333 kts 212°
2026-05-03 22:28 51.09661 -1.20080 11984 ft 336 kts 212°
2026-05-03 22:28 51.07683 -1.22108 12917 ft 340 kts 212°
2026-05-03 22:28 51.05684 -1.24153 13821 ft 344 kts 212°
2026-05-03 22:29 51.03664 -1.26215 14616 ft 347 kts 212°
2026-05-03 22:29 51.01622 -1.28294 15330 ft 351 kts 212°
2026-05-03 22:29 50.99563 -1.30396 15759 ft 353 kts 212°
2026-05-03 22:29 50.97491 -1.32507 15934 ft 354 kts 212°
2026-05-03 22:30 50.95403 -1.34577 15973 ft 354 kts 209°
2026-05-03 22:30 50.93224 -1.36390 15979 ft 354 kts 207°
2026-05-03 22:30 50.91014 -1.38152 15973 ft 354 kts 206°
2026-05-03 22:30 50.88819 -1.39893 15968 ft 354 kts 206°
2026-05-03 22:31 50.86622 -1.41641 15970 ft 354 kts 206°
2026-05-03 22:31 50.84414 -1.43398 15965 ft 353 kts 206°
2026-05-03 22:31 50.82219 -1.45146 15962 ft 353 kts 206°
2026-05-03 22:31 50.80026 -1.46887 15957 ft 353 kts 206°
2026-05-03 22:32 50.77828 -1.48633 15953 ft 353 kts 206°
2026-05-03 22:32 50.75630 -1.50378 15950 ft 353 kts 206°
2026-05-03 22:32 50.73429 -1.52124 15951 ft 353 kts 206°
2026-05-03 22:32 50.71247 -1.53853 15952 ft 353 kts 206°
2026-05-03 22:33 50.69044 -1.55599 15954 ft 353 kts 206°
2026-05-03 22:33 50.66844 -1.57342 15953 ft 353 kts 206°
2026-05-03 22:33 50.64645 -1.59080 15954 ft 353 kts 206°
2026-05-03 22:33 50.62451 -1.60809 15939 ft 352 kts 206°
2026-05-03 22:34 50.60257 -1.62536 15939 ft 352 kts 206°
2026-05-03 22:34 50.58068 -1.64255 15941 ft 352 kts 206°
2026-05-03 22:34 50.55875 -1.65979 15941 ft 352 kts 206°
2026-05-03 22:34 50.53688 -1.67698 15941 ft 352 kts 206°
2026-05-03 22:35 50.51528 -1.69391 15939 ft 352 kts 206°
2026-05-03 22:35 50.49341 -1.71104 15940 ft 352 kts 206°
2026-05-03 22:35 50.47156 -1.72817 15938 ft 352 kts 206°
2026-05-03 22:35 50.44963 -1.74535 15939 ft 352 kts 206°
2026-05-03 22:36 50.42778 -1.76245 15941 ft 352 kts 206°
2026-05-03 22:36 50.40589 -1.77952 15941 ft 352 kts 206°
2026-05-03 22:36 50.38399 -1.79659 15941 ft 351 kts 206°
2026-05-03 22:36 50.36233 -1.81346 15941 ft 350 kts 206°
2026-05-03 22:37 50.34046 -1.83048 15939 ft 350 kts 206°
2026-05-03 22:37 50.31862 -1.84745 15952 ft 350 kts 206°
2026-05-03 22:37 50.29677 -1.86444 15947 ft 350 kts 206°
2026-05-03 22:37 50.27501 -1.88136 15944 ft 350 kts 206°
2026-05-03 22:38 50.25292 -1.89850 15942 ft 350 kts 206°
2026-05-03 22:38 50.23132 -1.91524 15942 ft 350 kts 206°
2026-05-03 22:38 50.20952 -1.93210 15947 ft 350 kts 206°
2026-05-03 22:38 50.18782 -1.94886 15947 ft 350 kts 206°
2026-05-03 22:39 50.16594 -1.96568 15942 ft 350 kts 206°
2026-05-03 22:39 50.14413 -1.98247 15943 ft 349 kts 206°
2026-05-03 22:39 50.12239 -1.99921 15943 ft 349 kts 206°
2026-05-03 22:39 50.10058 -2.01601 15943 ft 349 kts 206°
2026-05-03 22:40 50.07879 -2.03275 15945 ft 349 kts 206°
2026-05-03 22:40 50.05704 -2.04944 15944 ft 349 kts 206°
2026-05-03 22:40 50.03523 -2.06616 15947 ft 349 kts 206°
2026-05-03 22:40 50.01345 -2.08285 15948 ft 349 kts 206°
2026-05-03 22:41 49.99173 -2.09980 15942 ft 349 kts 208°
2026-05-03 22:41 49.97256 -2.12276 15942 ft 351 kts 224°
2026-05-03 22:41 49.95624 -2.15090 15947 ft 351 kts 227°
2026-05-03 22:41 49.94023 -2.17956 15943 ft 350 kts 227°
2026-05-03 22:42 49.92424 -2.20800 15945 ft 350 kts 227°
2026-05-03 22:42 49.90816 -2.23635 15946 ft 349 kts 227°
2026-05-03 22:42 49.89237 -2.26404 15537 ft 341 kts 227°
2026-05-03 22:42 49.87680 -2.29123 15245 ft 331 kts 227°
2026-05-03 22:43 49.86178 -2.31741 15049 ft 318 kts 227°
2026-05-03 22:43 49.84739 -2.34246 14885 ft 306 kts 227°
2026-05-03 22:43 49.83352 -2.36658 14657 ft 294 kts 227°
2026-05-03 22:43 49.81995 -2.39015 14105 ft 292 kts 227°
2026-05-03 22:44 49.80643 -2.41358 13484 ft 292 kts 227°
2026-05-03 22:44 49.79296 -2.43690 12860 ft 291 kts 227°
2026-05-03 22:44 49.77951 -2.46019 12259 ft 289 kts 226°
2026-05-03 22:44 49.76619 -2.48324 11689 ft 286 kts 226°
2026-05-03 22:45 49.75294 -2.50614 11131 ft 284 kts 226°
2026-05-03 22:45 49.73979 -2.52883 10590 ft 282 kts 226°
2026-05-03 22:45 49.72676 -2.55132 10056 ft 280 kts 226°
2026-05-03 22:45 49.71360 -2.57333 9506 ft 277 kts 222°
2026-05-03 22:46 49.69789 -2.58940 9047 ft 269 kts 201°
2026-05-03 22:46 49.67966 -2.59485 8462 ft 268 kts 184°
2026-05-03 22:46 49.66099 -2.59541 7880 ft 268 kts 181°
2026-05-03 22:46 49.64237 -2.59565 7313 ft 267 kts 182°
2026-05-03 22:47 49.62383 -2.59609 6763 ft 266 kts 182°
2026-05-03 22:47 49.60541 -2.59668 6213 ft 264 kts 182°
2026-05-03 22:47 49.58704 -2.59738 5624 ft 263 kts 182°
2026-05-03 22:47 49.56874 -2.59812 5042 ft 263 kts 182°
2026-05-03 22:48 49.55047 -2.59890 4439 ft 263 kts 182°
2026-05-03 22:48 49.53219 -2.59970 3862 ft 262 kts 182°
2026-05-03 22:48 49.51411 -2.60050 3374 ft 258 kts 182°
2026-05-03 22:48 49.49651 -2.60129 3045 ft 247 kts 183°
2026-05-03 22:49 49.47971 -2.60205 2881 ft 236 kts 183°
2026-05-03 22:49 49.46367 -2.60319 2701 ft 226 kts 188°
2026-05-03 22:49 49.44884 -2.60956 2534 ft 212 kts 209°
2026-05-03 22:49 49.43858 -2.62422 2263 ft 204 kts 240°
2026-05-03 22:50 49.43455 -2.64483 2011 ft 204 kts 265°
2026-05-03 22:50 49.43403 -2.66661 1960 ft 204 kts 268°
2026-05-03 22:50 49.43359 -2.68839 1975 ft 204 kts 267°
2026-05-03 22:50 49.43295 -2.71021 1985 ft 204 kts 266°
2026-05-03 22:51 49.43318 -2.73188 1980 ft 205 kts 282°
2026-05-03 22:51 49.43975 -2.75075 1983 ft 202 kts 310°
2026-05-03 22:51 49.44978 -2.76602 2000 ft 203 kts 315°
2026-05-03 22:51 49.46016 -2.78089 1997 ft 204 kts 315°
2026-05-03 22:52 49.47051 -2.79568 1993 ft 204 kts 315°
2026-05-03 22:52 49.48093 -2.81057 1991 ft 204 kts 315°
2026-05-03 22:52 49.49133 -2.82539 1982 ft 204 kts 315°
2026-05-03 22:52 49.50095 -2.84121 1961 ft 201 kts 298°
2026-05-03 22:53 49.50431 -2.86111 1963 ft 192 kts 264°
2026-05-03 22:53 49.49995 -2.87982 1968 ft 190 kts 231°
2026-05-03 22:53 49.48939 -2.89154 1972 ft 191 kts 198°
2026-05-03 22:53 49.47616 -2.89235 1962 ft 194 kts 166°
2026-05-03 22:54 49.46457 -2.88197 1975 ft 197 kts 136°
2026-05-03 22:54 49.45646 -2.86496 1986 ft 199 kts 118°
2026-05-03 22:54 49.45070 -2.84561 1988 ft 200 kts 115°
2026-05-03 22:54 49.44512 -2.82601 1986 ft 200 kts 115°
2026-05-03 22:55 49.43943 -2.80600 1998 ft 207 kts 115°
2026-05-03 22:55 49.43379 -2.78605 1988 ft 196 kts 112°
2026-05-03 22:55 49.43073 -2.76679 2011 ft 181 kts 97°
2026-05-03 22:55 49.43070 -2.74761 2026 ft 177 kts 86°
2026-05-03 22:56 49.43137 -2.72931 1924 ft 166 kts 88°
2026-05-03 22:56 49.43187 -2.71304 1681 ft 142 kts 88°
2026-05-03 22:56 49.43229 -2.69795 1466 ft 145 kts 88°
2026-05-03 22:56 49.43274 -2.68220 1269 ft 148 kts 88°
2026-05-03 22:57 49.43318 -2.66641 1062 ft 148 kts 88°
2026-05-03 22:57 49.43378 -2.65072 858 ft 147 kts 86°
2026-05-03 22:57 49.43419 -2.63503 661 ft 147 kts 89°
2026-05-03 22:57 49.43452 -2.61948 434 ft 146 kts 88°
2026-05-03 22:58 49.43493 -2.60426 338 ft 118 kts 89°
2026-05-03 22:58 49.43509 -2.59737 351 ft 34 kts 85°
2026-05-03 22:58 49.43519 -2.59415 353 ft 14 kts 86°
2026-05-03 22:58 49.43521 -2.59264 354 ft 5 kts 89°
2026-05-03 22:59 49.43512 -2.59203 363 ft 7 kts 129°
2026-05-03 22:59 49.43461 -2.59194 350 ft 8 kts 190°
2026-05-03 22:59 49.43401 -2.59198 354 ft 2 kts 176°
2026-05-03 22:59 49.43378 -2.59214 352 ft 5 kts 230°
2026-05-03 23:00 49.43373 -2.59282 357 ft 8 kts 267°
2026-05-03 23:00 49.43371 -2.59368 350 ft 4 kts 268°
2026-05-03 23:00 49.43366 -2.59408 358 ft 4 kts 236°
2026-05-03 23:00 49.43330 -2.59403 354 ft 7 kts 174°
2026-05-03 23:01 49.43303 -2.59402 352 ft 0 kts 178°